Location: Saint-Gilles les Bains
(21.0539°S, 55.2287°E)
Time: 19:25:38
(UTC+04:00)

Hubble Space Telescope - Pass Details

Date: 10 December 2023
Orbit: 516 x 519 km, 28.5° (Epoch: 22 February)

Event Time Altitude Azimuth Distance (km) Brightness Sun altitude
Exits shadow 03:17:24 40° 104° (ESE) 787 1.9 -26.9°
Drops below altitude 10° 03:20:13 10° 83° (E) 1,758 3.9 -26.4°
Sets 03:22:29 0° 78° (ENE) 2,643 4.8 -26.0°
